Regional Weather Roundup
Issued by NWS

Home | Current Version | Previous Version | Graphics & Text | Print | Product List | Glossary On
Versions: 1 2 3 4 5 6 7 8 9 10 11 12 13 14 15 16 17 18 19 20 21 22 23 24 25 26 27 28 29 30 31 32 33 34 35 36 37 38 39 40 41 42 43 44 45 46 47 48 49 50
000
ASUS43 KMPX 241110
RWRMN
WEATHER ROUNDUP FOR MINNESOTA
NATIONAL WEATHER SERVICE TWIN CITIES/CHANHASSEN MN
600 AM CDT WED MAY 24 2017


NOTE: "FAIR" INDICATES FEW OR NO CLOUDS BELOW 12,000 FEET WITH NO
SIGNIFICANT WEATHER AND/OR OBSTRUCTIONS TO VISIBILITY. N/A MEANS
CURRENT SKY AND/OR WEATHER CONDITIONS ARE NOT AVAILABLE.

MNZ060>063-068>070-241200-
   Twin Cities Metro

CITY           SKY/WX    TMP DP  RH WIND       PRES   REMARKS
TWIN CITIES    PTCLDY    47  42  83 NE9       29.78S
ST PAUL        CLEAR     46  43  89 N3        29.79F
CRYSTAL        CLEAR     46  41  82 N5        29.78F
BLAINE         CLEAR     46  45  93 MISG      29.79S
LAKEVILLE      CLOUDY    45  43  93 NE9       29.77S
EDEN PRAIRIE   PTCLDY    48  43  82 NE8       29.77S
SOUTH ST PAUL  CLEAR     46  42  86 N5        29.78S
LAKE ELMO      FAIR      45  43  93 CALM      29.79S
$$
MNZ001>005-007-008-013>017-022>024-027-028-241200-
   Northwest Minnesota

CITY           SKY/WX    TMP DP  RH WIND       PRES   REMARKS
BEMIDJI        FOG       32  32 100 CALM      29.85F VSB<1/4
HALLOCK        CLEAR     43  39  87 SE7       29.85S
ROSEAU         CLEAR     37  34  87 CALM      29.86F
WARROAD        CLEAR     37  34  87 CALM      29.87S FOG
THIEF RVR FALL CLEAR     39  38  96 CALM      29.86F
CROOKSTON      CLEAR     37  37 100 CALM      29.86F FOG
FOSSTON        CLEAR     34  34 100 CALM      29.86S FOG
DETROIT LAKES  CLEAR     41  41 100 E3        29.85F
MOORHEAD       CLEAR     39  37  93 NE3       29.85F
PARK RAPIDS    CLEAR     43  38  82 NE5       29.84F
MAHNOMEN       FAIR      36  36  98 CALM      29.85S
$$
MNZ006-009>011-018-025>026-241200-
   North Central Minnesota

CITY           SKY/WX    TMP DP  RH WIND       PRES   REMARKS
BAUDETTE       FOG       33  33 100 CALM      29.86F VSB 1/4
FLAG ISLAND    CLEAR     50  41  71 CALM      29.85S
INTL FALLS     FOG       32  30  92 CALM      29.86F VSB 1/2
WASKISH        CLEAR     37  37 100 CALM      29.86F
BIG FORK       CLEAR     30  28  93 CALM      29.86S
LONGVILLE      CLEAR     39  37  93 CALM      29.84F
GRAND RAPIDS   FOG       39  39 100 CALM      29.87S VSB 3/4
CRANE LAKE     FOG       28  28 100 CALM      29.89S VSB 1
ORR            CLEAR     30  30 100 CALM      29.85S
COOK           CLEAR     30  30 100 CALM      29.87S
WALKER         FOG       35  35  99 CALM      29.85F VSB 1/4
$$
MNZ012-019>021-037-241200-
   Northeast Minnesota

CITY           SKY/WX    TMP DP  RH WIND       PRES   REMARKS
DULUTH         MOCLDY    46  44  93 NE6       29.82S
ELY            CLEAR     34  34 100 CALM      29.86S
HIBBING        CLEAR     34  34 100 N5        29.85S WCI  30
EVELETH        CLEAR     38  36  92 CALM      29.86S
DULUTH HARBOR  CLOUDY    46  45  93 CALM      29.84S
TWO HARBORS    MOCLDY    48  43  81 NE3       29.82S
SILVER BAY     PTCLDY    43  41  93 N3        29.82S
GRAND MARAIS     N/A     50  41  71 N7        29.84R
G MARAIS ARPRT CLEAR     39  34  81 N8        29.84F
$$
MNZ029>031-032-039>041-046>048-054>057-064-241200-
   West Central Minnesota

CITY           SKY/WX    TMP DP  RH WIND       PRES   REMARKS
FERGUS FALLS   PTCLDY    45  45 100 CALM      29.83F
WHEATON        CLOUDY    45  43  93 CALM      29.86S
MORRIS         CLOUDY    45  45 100 N3        29.82F
ALEXANDRIA     CLOUDY    48  46  93 NE5       29.84S
ELBOW LAKE     CLOUDY    46  45  97 E5        29.84S
WADENA         PTCLDY    43  41  93 N5        29.83F
GLENWOOD       MOCLDY    46  46 100 NE7       29.83S
APPLETON       CLOUDY    45  43  93 CALM      29.82F
BENSON         CLOUDY    45  43  93 N3        29.84S
ORTONVILLE     CLOUDY    45  43  93 N3        29.83F
MADISON        CLOUDY    48  48 100 N6        29.83F
WILLMAR        MOCLDY    46  45  93 CALM      29.83R
$$
MNZ033>034-036-042>043-049>051-058-059-241200-
   Central Minnesota

CITY           SKY/WX    TMP DP  RH WIND       PRES   REMARKS
ST CLOUD       CLOUDY    48  45  89 N6        29.82S
SAUK CENTRE    CLOUDY    47  46  93 N3        29.83S
PAYNESVILLE    CLEAR     44  44 100 CALM      29.82S
AITKIN         CLOUDY    45  43  93 CALM      29.82S
PINE RIVER     PTCLDY    39  39 100 CALM      29.88S
BRAINERD       MOCLDY    48  46  93 N6        29.84S
STAPLES        CLOUDY    46  45  93 N3        29.84S
LONG PRAIRIE   CLOUDY    46  45  93 NW5       29.83F
LITTLE FALLS   CLOUDY    46  45  93 CALM      29.83S
LITCHFIELD     PTCLDY    46  45  93 N5        29.82S
BUFFALO        CLOUDY    48  43  82 N7        29.81S
MAPLE LAKE     CLOUDY    47  46  93 NE5       29.82S
HUTCHINSON     PTCLDY    47  45  93 N5        29.81S
$$
MNZ037-044-045-052-053-241200-
   East Central Minnesota

CITY           SKY/WX    TMP DP  RH WIND       PRES   REMARKS
PRINCETON      MOCLDY    46  45  93 N3        29.82S
MORA           CLOUDY    45  43  93 CALM      29.83S
CAMBRIDGE      MOCLDY    48  41  76 N3        29.79F
RUSH CITY      PTCLDY    44  42  93 N3        29.81S
MOOSE LAKE     CLOUDY    46  43  87 NE6       29.81S
HINCKLEY       CLOUDY    46  45  93 N3        29.81F
CLOQUET        PTCLDY    45  43  93 CALM      29.83S
MCGREGOR       CLOUDY    45  43  93 N3        29.84S VSB 3/4
$$
MNZ071>073-080-081-089-090-097-098-241200-
   Southwest Minnesota

CITY           SKY/WX    TMP DP  RH WIND       PRES   REMARKS
MONTEVIDEO     CLOUDY    45  45 100 N5        29.83R
CANBY          CLOUDY    46  45  95 CALM      29.85S
MARSHALL       MOCLDY    43  42  97 NW8       29.83R
REDWOOD FALLS  PTCLDY    46  43  89 NW6       29.80S
OLIVIA         CLEAR     43  41  93 CALM      29.80S
PIPESTONE      CLOUDY    46  43  87 N6        29.81S
WINDOM         PTCLDY    45  45 100 N9        29.79R
WORTHINGTON    CLOUDY    43  43 100 N9        29.80S
JACKSON        CLEAR     43  41  93 CALM      29.78S
TRACY          CLOUDY    46  46 100 NW8       29.82S
SLAYTON        CLOUDY    45  45  99 N12       29.82R FOG
$$
MNZ065>067-074>077-082>085-091>093-241200-
   South Central Minnesota

CITY           SKY/WX    TMP DP  RH WIND       PRES   REMARKS
MANKATO        CLEAR     44  43  96 N8        29.78
NEW ULM        CLEAR     45  43  93 N5        29.79S
ST JAMES       CLEAR     45  43  93 N8        29.79S
FAIRMONT       CLEAR     45  43  93 N10       29.77S
GLENCOE        CLOUDY    48  47  97 N5        29.79S
FARIBAULT      CLOUDY    46  45  93 N9G17     29.77S
OWATONNA       CLOUDY    46  43  87 N10       29.76S
WASECA         CLOUDY    45  43  93 NE14      29.77S
ALBERT LEA     CLOUDY    48  46  93 N9        29.74S
$$
MNZ078>079-086>088-094>096-241200-
   Southeast Minnesota

CITY           SKY/WX    TMP DP  RH WIND       PRES   REMARKS
ROCHESTER      CLOUDY    47  45  93 N12       29.74S
RED WING       CLOUDY    48  43  81 CALM      29.75S
STANTON        CLOUDY    47  44  87 NE10      29.76S
DODGE CENTER   CLOUDY    46  45  93 N8        29.74S
WINONA         CLOUDY    52  46  82 N5        29.73S
AUSTIN         CLOUDY    46  45  93 N5        29.73S
PRESTON        CLOUDY    47  45  91 N6        29.72S
$$
ABBREVIATIONS USED IN REMARKS
   TC - TEMPERATURES IN CELSIUS
  WCI - WIND CHILL INDEX
   HX - HEAT INDEX
  VSB - VISIBILITY
$$



USA.gov is the U.S. government's official web portal to all federal, state and local government web resources and services.